Regional Weather Roundup
Issued by NWS

Home | Current Version | Previous Version | Graphics & Text | Print | Product List | Glossary On
Versions: 1 2 3 4 5 6 7 8 9 10 11 12 13 14 15 16 17 18 19 20 21 22 23 24 25 26 27 28 29 30 31 32 33 34 35 36 37 38 39 40 41 42 43 44 45 46 47 48 49 50
000
ASUS43 KMKX 280211
RWRWI

WISCONSIN REGIONAL WEATHER ROUNDUP
NATIONAL WEATHER SERVICE MILWAUKEE/SULLIVAN WI
900 PM CDT TUE SEP 27 2016

NOTE: "FAIR" INDICATES FEW OR NO CLOUDS BELOW 12,000 FEET WITH NO
SIGNIFICANT WEATHER AND/OR OBSTRUCTIONS TO VISIBILITY.

WIZ001-002-006>008-014>016-023>028-280300-
NORTHWEST WISCONSIN

CITY           SKY/WX    TMP DP  RH WIND       PRES   REMARKS
SUPERIOR ARPT  CLOUDY    49  46  88 N3        29.84R
ASHLAND        CLOUDY    50  46  86 NW8       29.80R
HAYWARD        LGT RAIN  47  45  93 VRB3      29.81R
SIREN          CLOUDY    47  45  92 NW6       29.85R
CUMBERLAND     CLOUDY    45  43  93 N10       29.83R
RICE LAKE      CLOUDY    47  44  89 NW5       29.83R
CHETEK         NOT AVBL
LADYSMITH      CLOUDY    48  46  94 NW10      29.81R FOG
EAU CLAIRE     CLOUDY    48  46  93 NW6       29.81R
MENOMONIE      CLOUDY    47  47 100 W8        29.82S
NEW RICHMOND   CLOUDY    47  46  98 N7        29.85R
OSCEOLA        CLOUDY    48  48 100 NW5       29.88R
$$

WIZ003>005-009-010-017-018-280300-
NORTH CENTRAL WISCONSIN

CITY           SKY/WX    TMP DP  RH WIND       PRES   REMARKS
MANITOWISH WTR NOT AVBL
ARBOR VITAE    CLOUDY    49  48  96 NW8       29.74S
WOODRUFF       CLOUDY    49  48  96 NW8       29.74S
RHINELANDER    CLOUDY    48  48 100 NW6       29.74R
EAGLE RIVER    DRIZZLE   47  47 100 W8        29.72S
LAND O LAKES   CLOUDY    48  48  98 NW5       29.73S FOG
PHILLIPS       CLOUDY    46  46  99 NW5       29.76S
TOMAHAWK       CLOUDY    46  45  93 NW6       29.75S
MEDFORD        CLOUDY    46  46 100 NW7       29.76S
MERRILL        CLOUDY    47  47  98 NW3       29.75S
$$

WIZ029-030-035-036-043>047-280300-
CENTRAL WISCONSIN

CITY           SKY/WX    TMP DP  RH WIND       PRES   REMARKS
WAUSAU         CLOUDY    48  46  93 NW7       29.74R
MOSINEE        CLOUDY    46  46 100 NW6       29.76R
MARSHFIELD     CLOUDY    49  45  86 NW10      29.76R
STEVENS POINT  DRIZZLE   46  46 100 W5        29.76S
WAUPACA        CLOUDY    51  50  96 W6        29.75S
WAUTOMA        LGT RAIN  49  48  97 W7        29.77S
WISC RAPIDS    LGT RAIN  48  48 100 NW7       29.78R
CAMP DOUGLAS   PTCLDY    48  47  95 W6        29.79R
$$

WIZ011>013-019>022-031-037>040-048>050-280300-
NORTHEAST WISCONSIN

CITY           SKY/WX    TMP DP  RH WIND       PRES   REMARKS
ANTIGO         CLOUDY    46  46  99 CALM      29.73S
SHAWANO        CLOUDY    51  48  90 W5        29.73S
OCONTO         NOT AVBL
STURGEON BAY   CLOUDY    52  48  87 W6        29.72R
GREEN BAY      CLOUDY    50  50 100 W7        29.73R
MANITOWOC      LGT RAIN  51  48  89 MISG      29.74S
APPLETON       CLOUDY    48  48 100 W8        29.73S
CLINTONVILLE   NOT AVBL
OSHKOSH        LGT RAIN  50  48  93 W5        29.75S
$$

WIZ032>034-041-042-053>061-280300-
SOUTHWEST WISCONSIN

CITY           SKY/WX    TMP DP  RH WIND       PRES   REMARKS
LA CROSSE      LGT RAIN  52  48  86 NW9       29.81S
SPARTA         DRIZZLE   48  47  98 W5        29.81S
VIROQUA        CLOUDY    48  47  97 NW6       29.81S
BOSCOBEL       LGT RAIN  53  46  77 NW9       29.83R
PRAIRIE DU CHI LGT RAIN  55  44  68 N12G17    29.82R
PLATTEVILLE    CLOUDY    55  46  70 NE8       29.79R
$$

WIZ056-057-062-063-064-067-068-280300-
SOUTH CENTRAL WISCONSIN

CITY           SKY/WX    TMP DP  RH WIND       PRES   REMARKS
REEDSBURG      NOT AVBL
BARABOO/DELLS  DRIZZLE   47  46  93 W5        29.79S
LONE ROCK      LGT RAIN  51  45  79 W8        29.82R
MINERAL POINT  CLOUDY    54  45  71 N10G18    29.80R
MADISON        LGT RAIN  49  46  90 NW7       29.80R
MIDDLETON      CLOUDY    51  47  86 NW10      29.81R
WATERTOWN      DRIZZLE   49  49 100 NW5       29.78S
MONROE         MOCLDY    52  45  76 N10G20    29.80R
JANESVILLE     PTCLDY    55  46  71 N7        29.79R
$$

WIZ051-052-058>065-066-070>072-280300-
SOUTHEAST WISCONSIN

CITY           SKY/WX    TMP DP  RH WIND       PRES   REMARKS
MILWAUKEE      LGT RAIN  54  48  80 W9        29.80R
WAUKESHA       LGT RAIN  48  46  93 NW8       29.80R
MILWAUKEE/TIMM DRIZZLE   52  46  82 W8        29.79R
RACINE         CLOUDY    53  47  79 W5        29.81R
BURLINGTON     PTCLDY    51  44  77 NW8       29.80R
KENOSHA        CLOUDY    54  46  74 NW7       29.80R
FOND DU LAC    LGT RAIN  50  48  93 W8        29.76S
SHEBOYGAN      LGT RAIN  51  48  89 W7        29.75S
WEST BEND      DRIZZLE   50  46  87 W6        29.77S
JUNEAU         DRIZZLE   48  46  93 W5        29.78S
$$

LSZ147-162-280300-
LAKE SUPERIOR

STATION/POSITION TIME  TEMP    WIND        PRES    WAVE
                       AIR SEA DIR/SP/G            HT/PER
                 (UTC) (F)     (DEG/KT/KT) (MB)    (FT/S)
W MID LAKE BUOY  0150   55 51  340/ 16/ 17 1006.7R   3/ 5
DEVILS ISLAND    0200   53     330/ 15/ 17 1008.8R
SAXON HARBOR     0100   53     300/ 10/ 15 1007.5S
$$

LMZ867-665-643>646-280300-
LAKE MICHIGAN

STATION/POSITION TIME  TEMP    WIND        PRES    WAVE
                       AIR SEA DIR/SP/G            HT/PER
                 (UTC) (F)     (DEG/KT/KT) (MB)    (FT/S)
CHAMBERS ISLAND  0100   53     270/  5/  8 1005.4R
N MID LAKE BUOY  0150   56 66  270/ 10/ 14 1004.7R   3/ 6
NORTHPORT PIER   0100   53     290/  4/  8 1005.4R
ALGOMA LAKESHORE 0117          270/  7/ 10   N/A
KEWAUNEE LAKESHO 0100   51     260/  7/  9 1005.9R
SHEBOYGAN LAKESH 0200   52     240/  7/ 10 1007.5R
PORT WASHINGTON  0140   53     280/  1/  6 1008.8R
ATWATER BUOY     0100   54 53  300/  8/ 12 1008.3R
MILWAUKEE LAKESH 0110   54     310/  7/  9   N/A
S MID LAKE BUOY  0150   58 70  340/ 12/ 17 1007.9R   3/ 5
KENOSHA   LAKESH 0200   55     320/  5/  8 1009.1R
$$

TC  - TEMPERATURE IN CELSIUS
VSB - VISIBILITY IN STATUTE MILES
WCI - WIND CHILL INDEX
HX  - HEAT INDEX





USA.gov is the U.S. government's official web portal to all federal, state and local government web resources and services.